Preview of NWS' New Version of Forecast
This preview is not operational and should not be used for support decisions.

Regional Weather Roundup (RWR)

Issued by National Weather Service (NWS)

                            
000
ASUS45 KBOU 241310
RWRCO 

WEATHER ROUNDUP FOR COLORADO
NATIONAL WEATHER SERVICE DENVER/BOULDER CO
700 AM MDT SUN MAR 24 2019

NOTE: "FAIR" INDICATES FEW OR NO CLOUDS BELOW 12000 FEET WITH NO
SIGNIFICANT WEATHER AND/OR OBSTRUCTIONS TO VISIBILITY.

COZ001>005-013-030-031-241400-
...NORTHWEST COLORADO...
  
CITY           SKY/WX    TMP DP  RH WIND       PRES   REMARKS
CRAIG          CLOUDY    33  24  69 E6        30.07F WCI  28          
HAYDEN         MOCLDY    30  23  75 E12       30.09S WCI  20          
MEEKER         CLOUDY    30  25  81 NE3       30.08R                  
RANGELY        PTSUNNY   32  30  91 CALM      30.06R                  
RABBIT EARS PA PTSUNNY   21  19  93 W7        30.11S WCI  13          
STEAMBOAT SPGS MOCLDY    23  21  90 CALM      30.10S                  
WALDEN         FAIR      14   9  79 E3        30.11R                  
$$

COZ006>008-011-241400-
...WEST CENTRAL VALLEYS...
  
CITY           SKY/WX    TMP DP  RH WIND       PRES   REMARKS
GRAND JUNCTION CLOUDY    39  32  76 E8        30.06R                  
MONTROSE       LGT RAIN  34  29  82 E9        30.12R WCI  27          
EAGLE          CLOUDY    31  27  85 CALM      30.13S                  
RIFLE          MOCLDY    34  30  85 CALM      30.09R                  
DELTA          CLOUDY    37  34  89 N6        30.10R                  
NUCLA          CLOUDY    36  32  87 CALM      30.13R                  
$$

COZ017>023-064>068-241400-
...SOUTHWEST COLORADO...
  
CITY           SKY/WX    TMP DP  RH WIND       PRES   REMARKS
DURANGO        CLOUDY    31  27  85 E5        30.12R WCI  26          
CORTEZ         CLOUDY    32  28  85 CALM      30.10R                  
PAGOSA SPRINGS CLOUDY    28  25  90 CALM      30.15R                  
TELLURIDE      CLOUDY    30  27  86 E10       30.15S WCI  21          
WOLF CREEK PAS MOCLDY    18  18 100 SW10      30.22R WCI   6          
$$

COZ009-010-012-014-032>034-037-058>063-241400-
...CENTRAL COLORADO...
  
CITY           SKY/WX    TMP DP  RH WIND       PRES   REMARKS
ASPEN          CLOUDY    29  22  75 SW5       30.09S WCI  24          
BUENA VISTA    MOCLDY    26  17  68 E5        30.12R WCI  21          
COPPER MTN     FLURRIES  21  18  86 W9        30.12S WCI  11          
BERTHOUD PASS  MOCLDY    12   3  67 NW15G32   30.10R WCI  -4          
COTTONWOOD PAS CLOUDY    30  19  64 S5        30.12R WCI  25          
GUNNISON       FAIR      25  20  81 NE3       30.15S                  
GRANBY         FAIR      13  11  92 CALM      30.15R                  
KREMMLING      FAIR      19  18  93 CALM      30.15R                  
LEADVILLE      CLOUDY    24  16  71 NE6       30.10S WCI  17          
MONARCH PASS   CLOUDY    19  18  93 MISG      30.23R                  
SALIDA         FAIR      29  20  71 CALM      30.19R                  
SUNLIGHT       CLOUDY    23  21  93 SW8       30.16S WCI  14          
WILKERSON PASS FAIR      21  10  63 NW8       30.14S WCI  12          
$$

COZ069>075-241400-
...SAN LUIS VALLEY/SANGRE DE CRISTO MOUNTAINS...
  
CITY           SKY/WX    TMP DP  RH WIND       PRES   REMARKS
ALAMOSA        FAIR      19  16  88 SE3       30.12S                  
DEL NORTE      FAIR      26  18  71 W10       30.14R WCI  17          
LA VETA PASS   NOT AVBL                                               
SAGUACHE       FAIR      25  19  80 CALM      30.14R                  
$$

COZ035-036-038>040-241400-
...NORTHERN COLORADO FRONT RANGE...
  
CITY           SKY/WX    TMP DP  RH WIND       PRES   REMARKS
DENVER INTL AP FAIR      28  24  85 SE6       30.05R WCI  22          
AURORA         PTCLDY    32  24  71 S9        30.05R WCI  24          
FRONT RANGE AP FAIR      31  27  83 S3        30.06R                  
ERIE MUNI ARPT FAIR      24  23  94 CALM      30.11R                  
BOULDER MUN AP FAIR      32  30  93 CALM      30.05R                  
CENTENNIAL     FAIR      28  22  78 SE6       30.04R WCI  22          
BROOMFIELD     CLEAR     32  27  80 NW6       30.04R WCI  26          
FORT COLLINS   FAIR      28  27  96 N6        30.07R FOG     WCI  22  
LONGMONT       FAIR      24  21  89 CALM      30.08R                  
$$

COZ041-046-047-076>085-087-088-241400-
...PIKES PEAK/PALMER DIVIDE AND SOUTHERN FOOTHILLS...
  
CITY           SKY/WX    TMP DP  RH WIND       PRES   REMARKS
COLO. SPRINGS  FAIR      26  22  84 N7        30.07R WCI  18          
A. F. ACADEMY  FAIR      24  24  99 N7        30.05R WCI  16          
SCHRIEVER AFB  NOT AVBL                                               
CHEYENNE MTN   FAIR      35  19  53 W5        30.02R WCI  31          
ELLICOTT         N/A    N/A N/A N/A CALM      30.06R                  
FALCON         FAIR      28  21  74 CALM      30.08R                  
FORT CARSON    FAIR      29  28  95 N9        30.06R WCI  20          
LIMON          FAIR      25  24  96 N5        30.07R WCI  19          
MONUMENT HILL  FAIR      28  19  69 MISG      30.08R                  
CANON CITY     FAIR      30  25  80 E3        30.06S                  
WALSENBURG     NOT AVBL                                               
TRINIDAD       FAIR      30  28  92 W7        30.08S WCI  23          
$$

COZ042>045-048>051-090-091-241400-
...NORTHEAST COLORADO...
  
CITY           SKY/WX    TMP DP  RH WIND       PRES   REMARKS
GREELEY ARPT   FAIR      30  29  96 W6        30.07R FOG     WCI  24  
AKRON          FAIR      31  31 100 W8        30.04S WCI  23          
BURLINGTON     FAIR      33  31  92 W7        30.05R WCI  27          
WRAY           CLOUDY    37  37 100 N5        30.05S                  
YUMA           FAIR      32  32 100 W9        30.04R WCI  24          
STERLING       CLOUDY    37  36  93 W3        30.03F                  
HOLYOKE        FAIR      39  37  93 NW5       30.05R FOG              
FORT MORGAN      N/A     30  29  94 CALM      30.06R FOG              
$$

COZ086-089-092>099-241400-
...SOUTHEAST COLORADO...
  
CITY           SKY/WX    TMP DP  RH WIND       PRES   REMARKS
PUEBLO         FAIR      27  25  92 N3        30.07R                  
LA JUNTA       FAIR      34  31  88 W5        30.08R WCI  30          
LAMAR          FAIR      35  32  88 W9        30.06R WCI  28          
SPRINGFIELD      N/A     31  31 100 NW7       30.06R WCI  24          
$$